Weather in Dubove

Ukraine / Luhansk Region     48°07′34″N   39°40′17″E
temp.,
°C
wind,
m/s
gust,
m/s
humid.,
%
clouds,
%
prec.,
mm/h
press.,
hPa
HPBL,
m
2 july, sat
sat200:00+14nne49711 0.2 1014217
03:00+11n33712 0.2 101537
06:00+11nnw510730 0.0 1016501
09:00+17nnw812500 0.0 10161118
12:00+22n9133954 0.0 10152227
15:00+20nne711469 0.0 10151826
18:00+22n812450 0.0 10152017
21:00+18nnw613530 0.0 1016586
3 july, sun
sun300:00+15nw511690 0.0 1016307
03:00+13nw510800 0.0 1016240
06:00+14nw410740 0.0 1017292
09:00+21nnw68500 0.0 10161000
12:00+25n683789 0.0 10152491
15:00+24nnw5838100 0.0 10152281
18:00+22nw494776 0.0 1015364
21:00+19wnw336387 0.0 101627
4 july, mon
mon400:00+17wnw22764 0.4 101512
03:00+16wnw34823 0.4 101560
06:00+17wnw37850 0.0 1015200
09:00+23nnw57580 0.0 1015810
12:00+28nnw463956 0.0 10142414
15:00+30nnw673020 0.0 10132959
18:00+28n77358 0.0 10131897
21:00+21nne36570 0.0 101578
5 july, tue
tue500:00+18ene22670 0.0 101612
03:00+16n11740 0.0 101711
06:00+18nne22690 0.0 101890
09:00+23ne45450 0.0 10181050
12:00+26ene45310 0.0 10182110
15:00+28ene34280 0.0 10172389
18:00+28e24290 0.0 10172354
21:00+21ssw22421 0.0 101711
6 july, wed
wed600:00+19e11470 0.0 101811
03:00+18se11530 0.0 101811
06:00+20se11520 0.0 101936
09:00+26ese23320 0.0 1018994
12:00+29e43290 0.0 10182321
15:00+30e33270 0.0 10172561
18:00+30e43285 0.0 10162412
21:00+23ese33420 0.0 101736